Weather History for LTAR - October, 2013

Change the Weather History Date:

Sunday, October 6, 2013

  Actual Average Record
Temperature  
Mean Temperature 40 °F -  
Max Temperature 47 °F 61 °F - ()
Min Temperature 30 °F 38 °F - ()
Degree Days  
Heating Degree Days 26    
Moisture  
Dew Point 29 °F    
Average Humidity 81    
Maximum Humidity 100    
Minimum Humidity 36    
Precipitation  
Precipitation 0.00 in 0.04 in - ()
Sea Level Pressure  
Sea Level Pressure 30.13 in    
Wind  
Wind Speed 11 mph ()    
Max Wind Speed 21 mph    
Max Gust Speed -    
Visibility 6.6 miles    
Events Snow    
T = Trace of Precipitation, MM = Missing Value Source: Averaged Metar Reports

Daily Weather History Graph

Daily Weather History Graph

Search for Another Location

Airport or City:

Trip Planner

Search our weather history database for the weather conditions in past years. The results will help you decide how hot, cold, wet, or windy it might be!

Date:

Astronomy

Oct. 06, 2013 Rise Set
Actual Time 6:33 AM EEST 6:06 PM EEST
Civil Twilight 6:06 AM EEST 6:33 PM EEST
Nautical Twilight 5:35 AM EEST 7:05 PM EEST
Astronomical Twilight 5:03 AM EEST 7:36 PM EEST
Moon 7:54 AM EEST (10/6) 6:51 PM EEST (10/6)
Length of Visible Light 12h 27m
Length of Day
11h 33m
New Moon, 2% of the Moon is Illuminated
Oct 6
New Moon
Oct 12
First Quarter
Oct 19
Full
Oct 27
Last Quarter
Nov 3
New

Hourly Weather History & Observations

Time (EEST) Temp. Windchill Dew Point Humidity Pressure Visibility Wind Dir Wind Speed Gust Speed Precip Events Conditions
3:00 AM 38 °F - 30 °F 65%  in 9 mi East 2.3 mph - -   Mostly Cloudy
3:50 AM 30.2 °F 20.2 °F 28.4 °F 93% 30.04 in 6.2 mi North 12.7 mph - N/A   Mostly Cloudy
4:50 AM 30.2 °F 18.9 °F 30.2 °F 100% 30.04 in 6.2 mi North 16.1 mph - N/A   Mostly Cloudy
5:50 AM 30.2 °F 18.1 °F 28.4 °F 93% 30.06 in 6.2 mi NNW 18.4 mph - N/A Snow Light Snow
6:30 AM 30.2 °F 18.5 °F 28.4 °F 93% 30.06 in 6.2 mi NNW 17.3 mph - N/A   Mostly Cloudy
6:50 AM 30.2 °F 19.3 °F 28.4 °F 93% 30.06 in 6.2 mi NNW 15.0 mph - N/A   Mostly Cloudy
7:50 AM 30.2 °F 18.1 °F 28.4 °F 93% 30.06 in 6.2 mi NNW 18.4 mph - N/A   Mostly Cloudy
8:50 AM 32.0 °F 20.5 °F 28.4 °F 87% 30.09 in 6.2 mi NNW 18.4 mph - N/A   Mostly Cloudy
9:00 AM 39 °F - 29 °F 58%  in 9 mi NE 4.6 mph - -   Partly Cloudy
9:50 AM 33.8 °F 23.5 °F 28.4 °F 81% 30.09 in 6.2 mi North 16.1 mph - N/A   Mostly Cloudy
10:50 AM 35.6 °F 25.2 °F 28.4 °F 75% 30.09 in 6.2 mi NNW 18.4 mph - N/A   Mostly Cloudy
11:50 AM 35.6 °F 25.2 °F 28.4 °F 75% 30.12 in 6.2 mi NNW 18.4 mph - N/A   Mostly Cloudy
12:50 PM 37.4 °F 27.8 °F 28.4 °F 70% 30.12 in 6.2 mi NNW 17.3 mph - N/A   Mostly Cloudy
1:50 PM 37.4 °F 27.5 °F 28.4 °F 70% 30.12 in 6.2 mi NNW 18.4 mph - N/A   Mostly Cloudy
2:50 PM 37.4 °F 28.2 °F 28.4 °F 70% 30.12 in 6.2 mi NNW 16.1 mph - N/A   Mostly Cloudy
3:00 PM 47 °F - 29 °F 36%  in 9 mi NNE 8.1 mph - -   Partly Cloudy
3:50 PM 37.4 °F 26.9 °F 30.2 °F 75% 30.15 in 6.2 mi NNW 20.7 mph - N/A   Mostly Cloudy
4:50 PM 37.4 °F 27.8 °F 28.4 °F 70% 30.15 in 6.2 mi North 17.3 mph - N/A   Mostly Cloudy
5:50 PM 33.8 °F 23.2 °F 28.4 °F 81% 30.18 in 6.2 mi North 17.3 mph - N/A   Mostly Cloudy
6:50 PM 32.0 °F 23.6 °F 28.4 °F 87% 30.21 in 6.2 mi North 10.4 mph - N/A   Mostly Cloudy
7:50 PM 32.0 °F 24.2 °F 30.2 °F 93% 30.24 in 6.2 mi NNW 9.2 mph - N/A   Mostly Cloudy
8:50 PM 32.0 °F 23.6 °F 30.2 °F 93% 30.24 in 6.2 mi North 10.4 mph - N/A   Mostly Cloudy
9:00 PM 37 °F - 31 °F 71%  in 9 mi NE 3.5 mph - -   Partly Cloudy
9:50 PM 32.0 °F 24.2 °F 30.2 °F 93% 30.24 in 6.2 mi North 9.2 mph - N/A   Mostly Cloudy
10:50 PM 32.0 °F 26.4 °F 28.4 °F 87% 30.24 in 6.2 mi North 5.8 mph - N/A   Mostly Cloudy
11:50 PM 30.2 °F 23.4 °F 30.2 °F 100% 30.24 in 6.2 mi North 6.9 mph - N/A   Mostly Cloudy